When you browse on this site, cookies collect data to enhance your experience and personalize the content and advertising you see.
Visit our Privacy Policy to learn more. By continuing to use the site, you agree to this use of cookies and data.
  • en Belgique
  • Liste des pays
  • À 7 jours
  • Température de l'eau
  • Carte météo
  • Widgets météo
  • user-avatar
    Se connecter

    Météo par heure à Sydney

    Ce jour, 13 Décembre, Vendredi

    Heure Température Précipitation Vent Pression Humidité
    00:00 +19°C° 0 mm 2 m/s 761 mmHg 69%
    01:00 +19°C° 0 mm 2 m/s 761 mmHg 70%
    02:00 +19°C° 0 mm 2 m/s 760 mmHg 71%
    03:00 +19°C° 0 mm 2 m/s 760 mmHg 71%
    04:00 +19°C° 0 mm 2 m/s 759 mmHg 75%
    05:00 +19°C° 0.1 mm 2 m/s 760 mmHg 73%
    06:00 +19°C° 0.1 mm 2 m/s 760 mmHg 71%
    07:00 +20°C° 0.1 mm 2 m/s 760 mmHg 70%
    08:00 +21°C° 0.1 mm 2 m/s 760 mmHg 67%
    09:00 +21°C° 0.1 mm 2 m/s 760 mmHg 64%
    10:00 +22°C° 0.1 mm 3 m/s 760 mmHg 61%
    11:00 +22°C° 0.1 mm 3 m/s 760 mmHg 60%
    12:00 +23°C° 0.1 mm 4 m/s 759 mmHg 59%
    13:00 +23°C° 0.1 mm 4 m/s 759 mmHg 58%
    14:00 +23°C° 0 mm 5 m/s 758 mmHg 58%
    15:00 +23°C° 0 mm 5 m/s 758 mmHg 59%
    16:00 +23°C° 0 mm 5 m/s 757 mmHg 59%
    17:00 +22°C° 0 mm 5 m/s 758 mmHg 62%
    18:00 +21°C° 0 mm 4 m/s 758 mmHg 66%
    19:00 +20°C° 0 mm 4 m/s 758 mmHg 70%
    20:00 +20°C° 0 mm 4 m/s 759 mmHg 71%
    21:00 +20°C° 0 mm 3 m/s 759 mmHg 73%
    22:00 +19°C° 0 mm 3 m/s 759 mmHg 75%
    23:00 +19°C° 0 mm 3 m/s 759 mmHg 77%

    Demain, 14 Décembre, Samedi

    Heure Température Précipitation Vent Pression Humidité
    00:00 +19°C° 0 mm 3 m/s 759 mmHg 79%
    01:00 +18°C° 0 mm 3 m/s 758 mmHg 81%
    02:00 +18°C° 0.1 mm 3 m/s 758 mmHg 83%
    03:00 +17°C° 0.1 mm 3 m/s 758 mmHg 85%
    04:00 +17°C° 0.1 mm 3 m/s 758 mmHg 87%
    05:00 +18°C° 0 mm 3 m/s 758 mmHg 81%
    06:00 +20°C° 0 mm 2 m/s 758 mmHg 74%
    07:00 +21°C° 0 mm 2 m/s 758 mmHg 67%
    08:00 +24°C° 0 mm 2 m/s 758 mmHg 58%
    09:00 +26°C° 0 mm 2 m/s 757 mmHg 50%
    10:00 +29°C° 0 mm 2 m/s 757 mmHg 41%
    11:00 +30°C° 0 mm 3 m/s 756 mmHg 38%
    12:00 +32°C° 0 mm 4 m/s 756 mmHg 35%
    13:00 +33°C° 0 mm 5 m/s 755 mmHg 32%
    14:00 +32°C° 0 mm 6 m/s 755 mmHg 38%
    15:00 +30°C° 0 mm 6 m/s 754 mmHg 45%
    16:00 +29°C° 0 mm 7 m/s 754 mmHg 51%
    17:00 +27°C° 0 mm 6 m/s 755 mmHg 59%
    18:00 +25°C° 0 mm 4 m/s 756 mmHg 67%
    19:00 +22°C° 0 mm 3 m/s 756 mmHg 76%
    20:00 +22°C° 0.1 mm 3 m/s 757 mmHg 79%
    21:00 +21°C° 0.1 mm 2 m/s 758 mmHg 82%
    22:00 +21°C° 0.1 mm 2 m/s 759 mmHg 85%
    23:00 +21°C° 0.2 mm 2 m/s 758 mmHg 85%

    Après-demain, 15 Décembre, Dimanche

    Heure Température Précipitation Vent Pression Humidité
    00:00 +20°C° 0.2 mm 2 m/s 758 mmHg 86%
    01:00 +21°C° 0.2 mm 1 m/s 758 mmHg 87%
    02:00 +21°C° 0.1 mm 1 m/s 757 mmHg 88%
    03:00 +20°C° 0.1 mm 2 m/s 757 mmHg 89%
    04:00 +19°C° 0.1 mm 2 m/s 757 mmHg 90%
    05:00 +20°C° 0 mm 2 m/s 757 mmHg 86%
    06:00 +22°C° 0 mm 1 m/s 757 mmHg 81%
    07:00 +23°C° 0 mm 1 m/s 758 mmHg 77%
    08:00 +25°C° 0 mm 1 m/s 757 mmHg 64%
    09:00 +28°C° 0 mm 1 m/s 757 mmHg 52%
    10:00 +30°C° 0 mm 2 m/s 756 mmHg 39%
    11:00 +33°C° 0 mm 3 m/s 756 mmHg 34%
    12:00 +34°C° 0 mm 4 m/s 755 mmHg 28%
    13:00 +36°C° 0 mm 6 m/s 754 mmHg 23%
    14:00 +35°C° 0 mm 6 m/s 753 mmHg 27%
    15:00 +35°C° 0 mm 7 m/s 753 mmHg 32%
    16:00 +34°C° 0 mm 7 m/s 752 mmHg 37%
    17:00 +32°C° 0 mm 6 m/s 752 mmHg 44%
    18:00 +29°C° 0 mm 6 m/s 753 mmHg 51%
    19:00 +27°C° 0 mm 5 m/s 753 mmHg 58%
    20:00 +26°C° 0 mm 4 m/s 754 mmHg 61%
    21:00 +25°C° 0 mm 3 m/s 754 mmHg 64%
    22:00 +24°C° 0 mm 3 m/s 754 mmHg 67%
    23:00 +24°C° 0 mm 3 m/s 754 mmHg 59%

    16 Décembre, Lundi

    Heure Température Précipitation Vent Pression Humidité
    00:00 +22°C° 0 mm 3 m/s 754 mmHg 51%
    01:00 +22°C° 0 mm 4 m/s 753 mmHg 43%
    02:00 +22°C° 0 mm 5 m/s 754 mmHg 44%
    03:00 +21°C° 0 mm 6 m/s 754 mmHg 46%
    04:00 +21°C° 0 mm 7 m/s 754 mmHg 48%
    05:00 +21°C° 0 mm 7 m/s 755 mmHg 53%
    06:00 +22°C° 0 mm 8 m/s 756 mmHg 58%
    07:00 +22°C° 0 mm 8 m/s 757 mmHg 63%
    08:00 +23°C° 0 mm 8 m/s 758 mmHg 58%
    09:00 +23°C° 0 mm 8 m/s 758 mmHg 53%
    10:00 +24°C° 0 mm 8 m/s 759 mmHg 48%
    11:00 +24°C° 0 mm 8 m/s 759 mmHg 48%
    12:00 +24°C° 0 mm 8 m/s 759 mmHg 48%
    13:00 +24°C° 0 mm 9 m/s 759 mmHg 49%
    14:00 +24°C° 0 mm 8 m/s 760 mmHg 49%
    15:00 +24°C° 0 mm 8 m/s 760 mmHg 50%
    16:00 +23°C° 0 mm 7 m/s 760 mmHg 51%
    17:00 +22°C° 0 mm 6 m/s 761 mmHg 55%
    18:00 +21°C° 0 mm 5 m/s 762 mmHg 58%
    19:00 +20°C° 0 mm 5 m/s 763 mmHg 61%
    20:00 +19°C° 0 mm 4 m/s 763 mmHg 63%
    21:00 +18°C° 0 mm 4 m/s 764 mmHg 65%
    22:00 +18°C° 0 mm 3 m/s 764 mmHg 66%
    23:00 +17°C° 0 mm 3 m/s 764 mmHg 67%

    17 Décembre, Mardi

    Heure Température Précipitation Vent Pression Humidité
    00:00 +17°C° 0 mm 2 m/s 764 mmHg 68%
    01:00 +16°C° 0 mm 2 m/s 764 mmHg 69%
    02:00 +16°C° 0 mm 2 m/s 764 mmHg 72%
    03:00 +15°C° 0 mm 1 m/s 764 mmHg 74%
    04:00 +15°C° 0 mm 1 m/s 764 mmHg 76%
    05:00 +18°C° 0 mm 1 m/s 764 mmHg 69%
    06:00 +19°C° 0 mm 1 m/s 764 mmHg 62%
    07:00 +21°C° 0 mm 1 m/s 764 mmHg 55%
    08:00 +23°C° 0 mm 2 m/s 764 mmHg 49%
    09:00 +25°C° 0 mm 2 m/s 764 mmHg 42%
    10:00 +27°C° 0 mm 2 m/s 764 mmHg 36%
    11:00 +27°C° 0 mm 3 m/s 764 mmHg 35%
    12:00 +28°C° 0 mm 4 m/s 763 mmHg 34%
    13:00 +28°C° 0 mm 5 m/s 763 mmHg 34%
    14:00 +28°C° 0 mm 5 m/s 763 mmHg 35%
    15:00 +27°C° 0 mm 5 m/s 762 mmHg 37%
    16:00 +27°C° 0 mm 6 m/s 762 mmHg 38%
    17:00 +25°C° 0 mm 5 m/s 762 mmHg 44%
    18:00 +23°C° 0 mm 5 m/s 763 mmHg 49%
    19:00 +21°C° 0 mm 5 m/s 763 mmHg 54%
    20:00 +20°C° 0 mm 5 m/s 763 mmHg 59%
    21:00 +19°C° 0 mm 4 m/s 764 mmHg 64%
    22:00 +18°C° 0 mm 4 m/s 764 mmHg 69%
    23:00 +18°C° 0 mm 4 m/s 764 mmHg 70%

    18 Décembre, Mercredi

    Heure Température Précipitation Vent Pression Humidité
    00:00 +17°C° 0 mm 3 m/s 763 mmHg 72%
    01:00 +17°C° 0 mm 3 m/s 763 mmHg 73%
    02:00 +16°C° 0 mm 2 m/s 763 mmHg 75%
    03:00 +16°C° 0 mm 2 m/s 763 mmHg 76%
    04:00 +15°C° 0 mm 2 m/s 763 mmHg 78%
    05:00 +17°C° 0 mm 2 m/s 763 mmHg 69%
    06:00 +19°C° 0 mm 2 m/s 763 mmHg 61%
    07:00 +21°C° 0 mm 3 m/s 763 mmHg 53%
    08:00 +25°C° 0 mm 3 m/s 763 mmHg 41%
    09:00 +29°C° 0 mm 3 m/s 762 mmHg 29%
    10:00 +34°C° 0 mm 3 m/s 762 mmHg 18%
    11:00 +36°C° 0 mm 4 m/s 761 mmHg 16%
    12:00 +39°C° 0 mm 5 m/s 761 mmHg 15%
    13:00 +41°C° 0 mm 6 m/s 760 mmHg 14%
    14:00 +39°C° 0 mm 6 m/s 760 mmHg 19%
    15:00 +36°C° 0 mm 7 m/s 759 mmHg 24%
    16:00 +34°C° 0 mm 8 m/s 759 mmHg 29%
    17:00 +32°C° 0 mm 7 m/s 759 mmHg 35%
    18:00 +29°C° 0 mm 7 m/s 760 mmHg 41%
    19:00 +26°C° 0 mm 6 m/s 760 mmHg 47%
    20:00 +25°C° 0 mm 5 m/s 761 mmHg 53%
    21:00 +23°C° 0 mm 4 m/s 761 mmHg 60%
    22:00 +22°C° 0 mm 3 m/s 762 mmHg 66%
    23:00 +21°C° 0 mm 3 m/s 761 mmHg 68%
    Voir plus